Regional Weather Roundup
Issued by NWS Charleston, SC

Current Version | Previous Version | Graphics & Text | Print | Product List | Glossary On
Versions: 1 2 3 4 5 6 7 8 9 10 11 12 13 14 15 16 17 18 19 20 21 22 23 24 25 26 27 28 29 30 31 32 33 34 35 36 37 38 39 40 41 42 43 44 45 46 47 48 49 50
000
ASUS42 KCHS 301710
RWRCHS

REGIONAL WEATHER ROUNDUP
NATIONAL WEATHER SERVICE CHARLESTON SC
100 PM EDT TUE SEP 30 2014

NOTE: "FAIR" INDICATES FEW OR NO CLOUDS BELOW 12,000 FEET WITH NO
SIGNIFICANT WEATHER AND/OR OBSTRUCTIONS TO VISIBILITY.

NOT ALL STATIONS ARE QUALITY CONTROLLED BY THE NATIONAL
WEATHER SERVICE. USE DATA WITH CAUTION...ESPECIALLY
DEWPOINT OBSERVATIONS.

SCZ027-030-031-034>040-042>050-301800-
...SOUTH CAROLINA...

CITY           SKY/WX    TMP DP  RH WIND       PRES   REMARKS
N CHARLESTON   MOSUNNY   79  62  56 NE10      29.88F
WATERFRONT PRK NOT AVBL
FORT JOHNSON   NOT AVBL
MOUNT PLEASANT FAIR      79  64  61 NE6       29.88F
JOHNS ISLAND     N/A     79  77  94 N9        29.88F
PINOPOLIS        N/A     73  63  68 N8        29.83S
MONCKS CORNER  FAIR      77  66  69 NE7       29.89F
SUMMERVILLE    FAIR      79  63  57 NE7       29.90F
BEAUFORT MCAS  MOSUNNY   78  65  63 N7        29.89F
BEAUFORT ARPT  PTSUNNY   77  68  73 N8        29.89F
HILTON HEAD IS MOSUNNY   73  64  73 N7        29.91S
GEORGETOWN     NOT AVBL
WALTERBORO     SUNNY     79  55  44 N7        29.90F
ORANGEBURG     SUNNY     78  58  49 NE7       29.91F
BARNWELL       FAIR      79  61  53 E7        29.92F
AIKEN          FAIR      79  64  61 N7        29.95F
MANNING        FAIR      79  64  61 N5        29.90F
KINGSTREE      NOT AVBL
COLUMBIA       MOSUNNY   81  60  48 VRB3      29.90F
SUMTER         SUNNY     78  58  50 VRB6      29.89F
FLORENCE       MOSUNNY   76  63  64 E3        29.90F
MYRTLE BEACH   SUNNY     79  63  57 NE12      29.88F
N MYRTLE BEACH SUNNY     79  61  53 N9        29.87F

$$

GAZ063-065-086>088-099>101-113>116-118-119-134-136>141-150-301800-
...GEORGIA...

CITY           SKY/WX    TMP DP  RH WIND       PRES   REMARKS
SAVANNAH ARPT  PTSUNNY   76  65  68 N9        29.91F
HUNTER AAF     NOT AVBL
FORT STEWART   CLOUDY    72  64  78 NE7       29.90F
STATESBORO     NOT AVBL
SYLVANIA       SUNNY     80  68  67 NE6       29.92F
CLAXTON        FAIR      77  66  69 CALM      29.91F
THOMSON        SUNNY     77  68  73 NE6       29.97F
AUGUSTA-BUSH   SUNNY     80  61  52 VRB3      29.91F
AUGUSTA-DANIEL SUNNY     78  61  55 NW5       29.92F
SWAINSBORO     PTSUNNY   79  68  69 N3        29.93F
VIDALIA        PTSUNNY   77  68  73 N5        29.92F
ALMA           CLOUDY    75  67  76 NE5       29.91F
WAYCROSS       CLOUDY    77  72  83 E3        29.91F
JESUP          CLOUDY    79  72  78 E7        29.91F
BRUNSWICK      CLOUDY    77  68  73 N7        29.90S
SAINT SIMONS   PTSUNNY   78  68  71 N7        29.89S

$$

SCZ027-028-034-036>038-045-046-048>050-GAZ119-141-301800-
...LAKE AND SUPPLEMENTAL COASTAL OBSERVATIONS...

STATION/POSITION TIME  TEMP    WIND        PRES    WAVE   SWELL
                       AIR SEA DIR/SP/G            HT/PER HT/PER/DIR
                 (UTC) (F)     (DEG/KT/KT) (MB)    (FT/S) (FT/S/D)
UPR LAKE MARION  NOT AVBL
WINYAH BAY       1600   74      10/  6     1012.0S
LAKE MURRAY      1600   77     140/  1/  2 1012.5F
ACE BASIN NERRS  1600   76      10/  3     1013.0S
FORT PULASKI     1700   73      30/  8/ 10 1012.5F
SAPELO ISLAND    NOT AVBL

$$

ANZ835-935-AMZ111-154-330-350-352-354-374-450-454-472-301800-
...C-MAN AND BUOY OBSERVATIONS...

STATION/POSITION TIME  TEMP    WIND        PRES    WAVE   SWELL
                       AIR SEA DIR/SP/G            HT/PER HT/PER/DIR
                 (UTC) (F)     (DEG/KT/KT) (MB)    (FT/S) (FT/S/D)
FOLLY BEACH CMAN 1600   73      30/  7/  9 1012.7S
BUOY 41004       1700   74 81   20/ 16/ 19 1010.3F   4/ 6   2/ 8
BUOY 41008       1700   73 79   20/ 16/ 17 1011.6R   4/ 6
5E ST. MARYS GA  1700      79                N/A     5/ 5
FRYING PAN BUOY  NOT AVBL
BUOY 41025       1700   74     360/ 17/ 21 1010.6F   3/ 8   2/ 70/ 8
CAPE LOOKOUT NC  1600   73      30/ 13/ 15 1011.6F
BUOY 41002       1559   74 80  150/ 10/ 14 1009.6F   3/ 4   2/ 70/ 7
BUOY 41010       1700   82 84  270/ 19/ 23 1009.3F   4/ 4   2/ 90/ 8
BUOY 41012       NOT AVBL
ST AUGUSTINE FL  1700   74     320/  6/  8 1011.7F
CAPERS NEARSHORE 1600   73      40/ 14/ 17   N/A
FRIPP NEARSHORE  NOT AVBL


$$



USA.gov is the U.S. government's official web portal to all federal, state and local government web resources and services.